Theta_e
293 295 294 293 293 294 294 294 294 295 295 296 296 297 298 298 299 300 299 299 299 301 303 305 307 309 311 313 315 316 315 314 311 313 317 314 308 307 302 302 299 298 297
292 292 292 291 291 290 291 291 292 292 293 294 294 295 296 296 297 295 294 295 295 296 298 299 300 302 303 303 304 303 304 307 308 306 312 312 302 302 303 297 298 298 297
290 290 290 289 288 288 288 289 289 289 290 292 292 292 293 293 292 292 292 293 294 295 296 296 296 294 292 293 294 295 297 300 300 301 302 298 297 296 296 294 294 295 294
288 288 287 286 286 286 287 287 287 288 288 289 290 291 291 291 289 289 289 290 292 292 293 293 292 289 289 290 291 292 292 292 294 294 294 294 291 289 289 290 288 289 290
286 286 285 284 284 284 284 285 285 286 287 288 288 288 289 289 287 287 287 287 289 289 290 289 290 287 286 289 288 287 287 288 289 288 289 289 288 287 285 286 286 287 287
284 283 283 282 282 282 282 283 283 284 285 287 287 286 285 286 286 286 286 286 286 286 285 286 287 287 286 287 288 287 287 285 285 286 285 284 284 285 286 285 285 284 284
282 282 281 280 280 281 281 281 281 282 283 284 285 284 283 284 285 285 284 285 285 285 284 283 283 284 283 283 286 286 285 285 285 284 283 282 283 283 284 284 284 283 283
280 280 279 279 278 279 280 279 280 280 281 283 283 283 282 283 284 284 283 284 283 283 283 282 281 281 281 281 282 284 283 282 282 282 282 282 282 282 282 283 282 282 283
278 277 277 278 277 278 278 278 279 279 279 280 281 281 281 281 282 283 282 281 280 281 282 281 280 280 281 282 280 279 280 279 281 283 283 283 282 281 281 280 277 278 279
276 276 277 277 277 277 277 277 279 279 279 279 279 280 280 279 281 282 281 279 278 278 280 280 280 279 281 281 278 277 276 276 278 278 279 279 279 278 278 277 276 274 274
276 276 277 276 276 277 277 277 278 278 278 278 278 279 279 279 279 281 281 279 278 277 277 277 278 280 279 280 279 277 276 278 277 277 277 276 277 276 276 276 276 274 272
275 275 274 275 275 276 275 276 277 278 277 277 277 277 279 279 279 280 280 280 280 277 276 276 277 279 278 278 277 277 277 276 275 275 274 272 272 272 273 274 274 274 274
272 272 273 273 274 274 274 274 275 276 276 276 276 276 276 277 278 280 280 279 278 277 277 277 276 277 276 275 275 275 273 272 272 270 270 271 271 272 273 272 273 273 273
270 272 273 272 272 274 274 274 274 274 274 274 274 275 275 276 276 277 278 277 277 276 275 273 274 274 275 274 272 272 272 271 270 269 269 270 271 270 270 271 269 270 269
270 271 272 273 272 272 273 273 272 273 274 272 272 274 272 272 275 277 277 276 275 275 272 271 270 270 270 270 270 270 270 270 269 268 268 268 268 268 268 269 268 267 266
269 271 271 270 271 271 271 271 274 274 275 275 275 274 273 275 276 276 277 277 276 275 269 268 268 268 267 267 267 267 268 267 267 266 267 267 266 266 266 266 267 265 265
266 268 269 269 270 269 269 268 267 270 273 273 273 273 273 274 274 275 276 275 273 271 266 266 266 266 266 266 266 266 265 266 266 266 265 265 265 265 264 265 265 265 264
264 265 267 268 268 268 268 267 267 266 265 267 270 271 272 272 272 273 273 271 266 267 265 264 264 264 264 264 264 264 264 264 263 264 263 263 263 263 263 263 263 263 263
266 267 268 267 267 266 265 266 266 266 266 266 266 268 269 269 271 272 271 265 263 263 264 264 264 264 264 264 264 263 262 262 262 260 261 261 262 262 262 262 262 261 262
267 264 263 264 265 265 265 265 265 265 264 264 264 265 265 264 266 265 265 265 264 263 263 263 263 263 263 262 262 262 261 261 261 261 261 261 261 261 261 261 262 261 261
266 265 262 263 264 264 264 263 263 263 262 262 263 264 268 266 263 263 263 263 263 263 262 262 262 262 262 262 261 261 261 261 261 260 260 260 260 259 260 261 261 261 261
263 263 263 263 263 262 262 262 261 261 261 261 261 262 266 262 262 262 262 262 262 262 262 261 261 261 261 260 260 259 259 258 259 259 259 259 259 259 259 260 260 260 261
262 262 262 262 262 260 260 261 261 261 261 261 261 261 261 261 260 261 261 261 261 261 261 260 259 259 259 259 259 259 258 258 258 258 257 257 257 258 258 259 260 260 260
260 260 260 260 260 260 259 260 260 259 259 260 260 260 260 260 260 260 260 260 260 259 259 259 258 257 257 257 258 258 259 259 259 258 256 256 256 257 257 258 259 260 260
260 259 259 259 259 259 259 259 259 259 259 259 259 259 260 259 259 259 259 259 258 258 257 257 257 257 256 255 256 256 256 258 257 257 256 255 256 256 256 257 258 259 260
259 259 258 258 258 258 258 258 258 258 258 258 258 258 258 258 258 258 258 257 257 256 256 257 257 256 256 256 256 257 259 261 259 259 259 259 258 259 261 261 262 262 263
Wind_Speed
12 11 11 11 12 11 10 11 11 12 12 12 13 13 13 13 13 12 12 12 14 13 13 13 14 14 11 11 11 12 12 10 15 14 12 7 3 6 3 3 3 5 7
11 11 11 11 12 12 12 13 12 12 12 12 12 12 12 13 13 14 14 13 14 14 13 13 13 11 14 13 10 13 12 13 12 18 14 8 5 4 4 7 5 6 4
11 11 12 12 12 13 13 13 13 13 13 13 12 12 13 13 13 14 14 14 14 13 13 13 13 12 11 9 10 10 10 10 10 10 11 3 2 3 2 1 3 2 1
11 11 12 13 13 13 13 13 13 13 13 13 12 12 12 12 13 14 15 14 13 13 13 12 11 12 13 13 9 9 9 10 9 7 7 4 2 4 3 2 3 2 0
10 10 11 11 12 12 13 13 12 12 11 12 12 12 11 9 10 15 14 14 12 12 11 12 11 9 15 10 8 10 10 7 6 6 6 5 4 4 6 4 3 3 4
8 8 9 10 11 11 11 11 11 11 12 11 10 11 12 8 19 22 19 12 11 11 11 11 12 10 15 21 15 14 14 11 9 6 5 6 6 6 4 4 3 3 1
7 8 9 10 11 11 11 12 11 12 12 12 12 12 12 12 19 22 23 10 10 10 11 11 11 10 14 15 16 11 10 16 17 10 10 7 6 8 7 4 3 1 3
8 9 10 10 11 10 11 12 12 12 12 11 11 11 11 10 19 22 22 11 9 9 9 9 12 11 14 16 13 11 7 10 11 8 9 9 10 10 10 6 6 4 2
8 9 9 9 10 11 11 12 11 11 10 10 10 10 10 10 18 21 19 11 11 10 8 8 10 11 19 22 12 12 10 10 12 15 12 15 15 17 15 6 7 6 3
8 8 9 9 9 10 10 10 9 9 10 9 10 9 10 10 16 19 17 9 11 10 9 8 11 12 18 19 11 11 11 11 10 9 8 9 10 11 15 9 7 6 5
7 8 7 7 8 8 8 8 8 8 8 7 8 8 7 8 11 17 19 9 9 9 9 8 7 16 16 16 15 10 10 9 10 7 5 5 6 7 7 7 8 6 5
7 7 7 6 6 6 7 7 7 8 8 8 7 7 6 7 13 12 18 18 15 8 9 8 9 17 15 13 11 16 15 12 6 6 6 6 6 6 6 6 6 5 5
7 6 5 6 5 6 7 7 6 6 6 7 7 7 7 7 7 15 16 17 16 9 8 13 16 15 13 9 13 14 9 6 6 5 6 5 5 5 6 4 4 5 5
6 6 6 6 6 6 6 5 5 6 6 6 8 8 7 7 7 7 8 7 10 9 12 8 10 10 10 8 6 7 5 6 5 5 6 6 6 5 4 4 5 6 6
6 6 6 6 6 7 6 6 6 6 7 7 8 8 8 8 8 16 14 8 7 10 9 6 5 5 5 5 5 5 5 5 5 6 6 6 6 6 5 5 4 4 4
6 5 5 6 6 6 6 7 10 13 14 16 15 11 7 16 18 19 19 18 18 16 5 5 5 5 5 6 6 6 5 6 5 6 6 6 6 6 6 6 5 4 6
6 7 6 6 6 6 6 7 9 8 15 14 14 14 16 15 17 18 17 17 16 10 4 4 5 5 5 5 5 5 6 5 6 5 6 6 6 6 7 6 6 6 6
5 7 6 5 6 6 6 7 6 8 8 7 11 13 13 15 16 17 15 13 6 5 3 4 5 5 5 5 5 5 6 5 5 5 6 6 5 6 7 7 6 6 7
5 5 4 5 5 5 6 7 6 7 7 7 7 10 6 15 17 11 11 3 5 5 5 5 5 5 6 6 6 6 6 6 6 5 5 5 5 5 7 6 7 8 9
5 6 5 5 5 6 5 6 6 7 7 6 6 6 6 7 7 6 5 5 5 5 5 6 5 5 5 6 6 6 6 6 6 5 5 6 6 5 7 8 7 8 8
4 4 4 5 5 5 5 6 6 6 7 6 7 7 16 8 7 6 6 6 6 6 6 6 6 6 6 6 6 6 7 7 6 6 6 7 6 7 7 8 8 9 9
4 4 4 5 5 5 5 5 6 7 7 7 7 7 16 5 6 6 6 6 6 6 6 6 6 6 6 6 6 6 7 8 7 7 7 7 7 8 8 9 9 9 10
4 5 5 5 5 5 6 5 6 6 7 7 7 7 6 6 6 6 7 7 6 6 6 6 7 7 6 6 6 7 8 8 7 6 8 8 9 9 8 9 10 10 10
4 5 5 5 5 5 6 6 6 6 7 7 7 7 7 7 7 8 7 7 6 6 6 6 6 9 9 7 7 7 8 8 7 8 8 9 10 11 9 10 11 13 12
4 4 4 5 5 5 6 6 6 6 6 6 7 7 7 7 7 7 7 6 6 7 8 7 7 9 10 11 11 12 13 16 12 11 8 10 13 15 13 11 13 13 15
4 5 5 4 5 5 5 6 6 6 7 7 7 7 7 7 7 7 7 7 7 7 9 8 9 11 13 12 13 15 16 16 14 14 10 10 11 12 11 14 18 13 16
Wind_Direction
11 5 4 3 359 356 358 356 352 342 344 343 343 338 339 339 341 339 339 332 328 322 320 316 313 314 310 315 316 300 288 278 276 277 282 287 253 244 243 224 193 196 185
4 360 1 358 354 354 353 350 348 342 342 341 341 339 340 344 345 345 336 332 326 324 323 321 322 325 323 327 334 321 311 313 312 310 295 286 240 217 224 188 203 208 210
357 358 358 358 352 350 349 345 343 342 340 343 344 343 345 343 351 348 338 331 325 327 330 329 332 350 334 332 323 314 317 317 317 310 307 319 6 330 350 343 198 150 183
354 355 355 354 349 344 344 344 342 342 339 341 344 344 346 345 3 348 341 333 334 337 337 341 349 355 343 343 335 343 333 324 325 326 324 325 353 0 302 344 318 34 132
348 352 349 345 344 342 343 342 339 339 338 339 341 345 345 347 4 346 345 333 341 341 348 350 350 357 339 336 351 349 349 344 346 344 347 338 356 5 338 344 27 346 28
345 348 344 344 340 342 340 336 334 336 338 338 343 345 345 345 352 348 347 327 342 348 350 352 346 356 355 347 344 354 9 359 355 351 24 12 14 354 321 349 10 322 314
346 348 345 344 341 342 342 342 343 340 335 336 339 344 343 340 349 348 348 332 338 344 350 356 349 356 356 347 337 352 17 19 19 2 4 10 354 0 341 355 1 339 344
347 348 351 347 344 343 344 346 345 342 338 338 340 341 341 338 346 349 351 351 346 350 358 7 358 355 354 351 341 341 15 14 12 12 12 15 25 13 0 350 340 332 304
352 349 347 347 342 342 348 346 344 338 336 336 334 333 336 335 345 350 353 348 346 347 352 3 6 352 355 360 355 354 356 9 358 5 12 26 24 26 22 4 9 350 352
349 343 343 345 342 336 339 337 335 333 331 333 333 334 333 336 342 352 356 348 343 339 337 351 359 357 354 3 3 359 356 357 352 360 8 21 27 18 24 25 5 14 355
332 328 329 334 329 327 327 324 323 324 324 319 328 326 319 337 335 344 350 354 346 335 335 341 346 349 355 356 7 356 354 354 349 352 1 8 8 13 16 12 13 12 358
327 321 323 323 322 323 317 315 320 316 317 318 325 322 328 335 330 335 342 347 346 339 331 332 332 338 344 356 2 359 360 2 356 359 360 5 357 359 356 356 353 350 334
328 312 310 322 316 318 318 319 319 320 315 317 321 321 325 329 323 331 335 343 344 341 334 325 328 333 343 357 353 5 9 5 351 354 352 352 347 339 329 343 334 329 316
309 314 314 315 324 315 318 318 315 315 316 317 316 312 319 318 324 327 328 337 345 340 340 322 324 340 343 360 360 2 358 359 352 351 339 333 328 336 333 348 333 336 321
309 305 308 314 313 312 309 312 305 300 304 309 304 311 316 314 313 318 324 331 337 323 340 318 327 342 342 350 352 354 347 350 355 346 333 329 329 330 328 343 320 317 305
306 305 318 310 312 308 310 306 303 305 307 306 304 307 308 305 311 317 321 330 334 332 322 325 329 341 340 340 339 339 339 343 350 327 322 321 320 322 322 321 308 312 308
288 302 304 302 306 308 311 308 311 314 314 315 311 312 315 310 319 314 323 330 330 338 328 326 324 332 327 325 325 325 321 327 321 305 312 312 313 312 311 313 308 307 304
268 268 273 291 300 303 303 305 303 305 311 310 316 314 312 322 318 314 327 338 326 331 303 312 307 310 311 312 313 310 310 310 307 311 312 302 302 301 304 300 303 303 299
282 285 302 295 290 297 291 286 293 296 297 302 307 314 336 323 316 315 333 316 309 303 309 304 305 303 306 304 303 301 298 298 298 285 280 283 283 284 287 288 290 287 284
258 252 264 291 297 296 292 296 298 297 302 300 303 309 323 307 314 326 316 309 300 294 298 295 294 292 293 292 294 296 296 295 294 291 291 289 286 283 287 290 287 289 287
289 293 294 282 283 295 298 291 293 297 292 294 296 299 301 314 316 302 300 297 294 294 294 294 297 293 290 289 290 292 291 292 290 288 288 286 285 285 283 281 280 280 279
280 286 289 287 292 290 292 305 293 288 288 289 294 295 308 304 288 292 293 291 292 289 288 287 286 283 284 286 286 285 283 281 282 281 283 284 283 281 278 278 277 276 277
265 279 284 284 286 291 281 276 284 284 287 292 294 294 296 291 290 289 290 293 294 292 289 283 282 283 280 274 266 267 272 272 274 279 283 283 281 278 278 278 279 280 277
258 267 274 281 281 286 282 285 294 287 280 284 288 290 292 291 290 290 288 286 285 287 284 282 275 271 281 277 272 268 266 267 267 265 257 267 272 278 274 272 273 274 274
253 262 267 273 277 282 286 282 283 284 284 287 289 290 293 292 290 290 292 292 288 286 285 281 277 276 277 277 274 272 271 274 267 264 266 262 262 266 266 266 268 271 270
248 257 265 272 271 270 276 285 286 289 290 289 288 287 288 289 289 291 292 291 290 289 291 286 279 275 278 280 277 276 277 280 278 267 250 250 257 264 263 263 266 265 269